DG1JLA-3 Weather Reports


time (UTC)temp
C
wind
direction
speed
KPH
gust
KPH
rain 1hr
cm
rain 24hr
cm
rain mn
cm
humidity
%
barometer
mb
20260507100444 9 50 4.8 11.3 0.13 2.84 2.03 94 1013.9
20260507095944 9 33 6.4 14.5 0.10 2.82 2.01 94 1013.8
20260507095444 9 32 6.4 16.1 0.08 2.79 1.98 94 1013.8
20260507094944 9 27 6.4 14.5 0.08 2.79 1.98 94 1013.8
20260507094444 9 30 6.4 16.1 0.08 2.79 1.98 94 1013.7
20260507093944 9 46 8.0 12.9 0.08 2.79 1.98 94 1013.7
20260507093444 9 39 8.0 12.9 0.08 2.79 1.98 94 1013.6
20260507092944 9 56 8.0 14.5 0.08 2.79 1.98 94 1013.5
20260507092444 9 22 6.4 12.9 0.05 2.77 1.96 94 1013.6
20260507091944 9 58 8.0 14.5 0.05 2.77 1.96 94 1013.5
20260507091444 9 31 8.0 12.9 0.05 2.74 1.93 94 1013.5
20260507090944 8 43 8.0 14.5 0.05 2.74 1.93 94 1013.4
20260507090444 9 49 8.0 14.5 0.03 2.72 1.91 94 1013.4
20260507085944 9 33 8.0 14.5 0.03 2.72 1.91 94 1013.4
20260507085444 9 47 9.7 16.1 0.03 2.72 1.91 94 1013.2
20260507084944 9 60 8.0 14.5 0.03 2.72 1.91 94 1013.1
20260507084444 9 55 8.0 17.7 0.03 2.72 1.91 94 1013.0
20260507083944 9 54 8.0 12.9 0.03 2.72 1.91 94 1012.9
20260507083444 9 52 8.0 12.9 0.03 2.72 1.91 94 1012.9
20260507082944 9 32 9.7 16.1 0.03 2.72 1.91 94 1012.9
20260507082444 8 33 8.0 16.1 0.03 2.72 1.91 94 1012.8
20260507081944 9 25 8.0 14.5 0.03 2.72 1.91 94 1012.9
20260507081444 9 352 6.4 12.9 0.00 2.69 1.88 94 1012.8
20260507080944 9 34 6.4 11.3 0.03 2.69 1.88 94 1012.8
20260507080444 9 24 6.4 12.9 0.03 2.69 1.88 94 1012.7
20260507075944 9 50 6.4 14.5 0.03 2.69 1.88 94 1012.7
20260507075444 8 41 6.4 11.3 0.03 2.69 1.88 94 1012.6
20260507074944 8 50 8.0 11.3 0.03 2.69 1.88 94 1012.7
20260507074444 8 20 8.0 14.5 0.03 2.69 1.88 94 1012.6
20260507073944 8 48 6.4 16.1 0.03 2.69 1.88 94 1012.5
20260507073444 8 36 4.8 12.9 0.03 2.69 1.88 94 1012.5
20260507072944 8 56 6.4 9.7 0.03 2.69 1.88 94 1012.4
20260507072444 8 52 6.4 12.9 0.03 2.69 1.88 94 1012.4
20260507071944 8 56 6.4 14.5 0.03 2.72 1.88 94 1012.4
20260507071444 8 18 6.4 9.7 0.05 2.72 1.88 94 1012.4
20260507070944 8 58 6.4 11.3 0.03 2.69 1.85 94 1012.4
20260507070444 8 32 6.4 9.7 0.03 2.69 1.85 94 1012.4
20260507065944 8 29 4.8 11.3 0.05 2.69 1.85 94 1012.3
20260507065444 8 35 6.4 9.7 0.05 2.69 1.85 94 1012.3
20260507064944 8 31 4.8 12.9 0.05 2.69 1.85 94 1012.3
20260507064444 9 42 3.2 8.0 0.08 2.69 1.85 94 1012.2
20260507063944 8 25 4.8 8.0 0.13 2.69 1.85 94 1012.2
20260507063444 8 43 4.8 8.0 0.20 2.69 1.85 94 1012.1
20260507062944 8 56 4.8 9.7 0.23 2.69 1.85 94 1012.0
20260507062444 8 30 4.8 9.7 0.25 2.69 1.85 94 1011.9
20260507061944 8 39 4.8 8.0 0.25 2.69 1.85 94 1011.9
20260507061444 9 44 4.8 9.7 0.23 2.67 1.83 94 1011.8
20260507060944 9 30 4.8 9.7 0.25 2.67 1.83 94 1011.7
20260507060444 9 49 3.2 8.0 0.28 2.67 1.83 94 1011.7
20260507055944 9 32 0.0 6.4 0.28 2.64 1.80 94 1011.7
20260507055444 9 46 0.0 3.2 0.28 2.64 1.80 94 1011.7
20260507054944 9 25 1.6 3.2 0.30 2.64 1.80 94 1011.6
20260507054444 9 34 1.6 4.8 0.30 2.62 1.78 94 1011.5
20260507053944 9 40 1.6 6.4 0.28 2.57 1.73 94 1011.5
20260507053444 9 358 1.6 6.4 0.20 2.49 1.65 94 1011.4
20260507052944 9 60 1.6 4.8 0.20 2.46 1.63 94 1011.4
20260507052444 9 41 1.6 6.4 0.18 2.44 1.60 94 1011.4
20260507051944 9 40 1.6 6.4 0.18 2.44 1.60 94 1011.3
20260507051444 9 41 3.2 8.0 0.20 2.44 1.60 94 1011.3
20260507050944 10 37 3.2 9.7 0.18 2.41 1.57 94 1011.3
20260507050444 10 49 3.2 6.4 0.18 2.39 1.55 94 1011.2
20260507045944 10 30 3.2 6.4 0.18 2.36 1.52 94 1011.1
20260507045444 10 46 1.6 6.4 0.20 2.36 1.52 94 1011.1
20260507044944 10 32 1.6 4.8 0.20 2.34 1.50 94 1011.0
20260507044444 10 37 1.6 3.2 0.23 2.31 1.47 94 1011.0
20260507043945 10 30 1.6 3.2 0.25 2.29 1.45 94 1010.9
20260507043445 10 46 1.6 4.8 0.28 2.29 1.45 94 1010.9
20260507042945 10 59 1.6 1.6 0.28 2.26 1.42 94 1010.8
20260507042445 10 68 0.0 3.2 0.30 2.26 1.42 94 1010.8
20260507041945 10 96 0.0 1.6 0.36 2.26 1.42 94 1010.7
20260507041445 10 98 0.0 0.0 0.36 2.24 1.40 94 1010.6
20260507040945 10 98 0.0 0.0 0.38 2.24 1.40 94 1010.6
20260507040445 10 98 0.0 0.0 0.38 2.21 1.37 94 1010.6
20260507035945 10 98 0.0 0.0 0.38 2.18 1.35 94 1010.6
20260507035445 10 98 0.0 1.6 0.38 2.16 1.32 94 1010.5
20260507034945 10 99 0.0 1.6 0.38 2.13 1.30 94 1010.6
20260507034445 10 90 0.0 0.0 0.36 2.08 1.24 94 1010.6
20260507033945 10 86 0.0 0.0 0.33 2.03 1.19 94 1010.5
20260507033445 10 93 0.0 1.6 0.36 2.01 1.17 94 1010.5
20260507032945 10 103 0.0 3.2 0.36 1.98 1.14 94 1010.5
20260507032445 10 91 0.0 1.6 0.36 1.96 1.12 94 1010.5
20260507031945 10 103 0.0 3.2 0.36 1.91 1.07 94 1010.5
20260507031445 10 94 0.0 1.6 0.36 1.88 1.04 94 1010.5
20260507030945 10 93 0.0 3.2 0.38 1.85 1.02 94 1010.5
20260507030445 10 102 0.0 1.6 0.41 1.83 0.99 94 1010.4
20260507025945 10 60 0.0 1.6 0.43 1.80 0.97 94 1010.3
20260507025445 10 46 0.0 1.6 0.46 1.78 0.94 94 1010.4
20260507024945 10 41 1.6 3.2 0.48 1.75 0.91 94 1010.3
20260507024445 10 43 1.6 6.4 0.51 1.73 0.89 94 1010.3
20260507023945 10 40 1.6 3.2 0.51 1.70 0.86 94 1010.3
20260507023445 10 42 1.6 4.8 0.48 1.65 0.81 94 1010.3
20260507022945 10 65 0.0 3.2 0.48 1.63 0.79 94 1010.4
20260507022445 10 63 0.0 3.2 0.46 1.60 0.76 94 1010.4
20260507021945 10 333 0.0 0.0 0.43 1.55 0.71 94 1010.4
20260507021445 10 28 0.0 0.0 0.43 1.52 0.69 94 1010.4
20260507020945 10 25 0.0 1.6 0.41 1.47 0.64 94 1010.4
20260507020445 10 25 0.0 1.6 0.36 1.42 0.58 94 1010.4
20260507015945 10 24 0.0 1.6 0.33 1.37 0.53 94 1010.4
20260507015445 10 20 0.0 1.6 0.30 1.32 0.48 94 1010.3
20260507014945 10 17 0.0 0.0 0.28 1.27 0.43 94 1010.4
20260507014445 10 288 0.0 0.0 0.23 1.22 0.38 94 1010.4
20260507013945 10 288 0.0 0.0 0.25 1.19 0.36 94 1010.3
20260507013445 10 288 0.0 1.6 0.25 1.17 0.33 94 1010.4
20260507012945 10 193 0.0 0.0 0.28 1.14 0.30 94 1010.3
20260507012445 10 193 0.0 1.6 0.28 1.14 0.30 94 1010.3
20260507011945 10 194 0.0 0.0 0.28 1.12 0.28 94 1010.3
20260507011445 10 195 0.0 0.0 0.25 1.09 0.25 94 1010.3
20260507010945 10 194 0.0 0.0 0.23 1.07 0.23 94 1010.3
20260507010445 10 195 0.0 1.6 0.23 1.07 0.23 94 1010.4
20260507005945 10 193 0.0 0.0 0.20 1.04 0.20 94 1010.4
20260507005445 10 193 0.0 0.0 0.18 1.02 0.18 94 1010.3
20260507004945 10 193 0.0 1.6 0.15 0.99 0.15 94 1010.4
20260507004445 10 193 0.0 0.0 0.15 0.99 0.15 94 1010.3
20260507003945 10 193 0.0 0.0 0.10 0.94 0.10 94 1010.3
20260507003445 10 194 0.0 1.6 0.08 0.91 0.08 93 1010.2
20260507002945 10 191 0.0 0.0 0.03 0.86 0.03 93 1010.3
20260507002445 10 191 0.0 0.0 0.03 0.86 0.03 93 1010.2
20260507001945 10 191 0.0 0.0 0.00 0.84 0.00 93 1010.1
20260507001445 10 106 0.0 0.0 0.00 0.84 0.00 93 1010.1
20260507000945 10 106 0.0 0.0 0.00 0.84 0.00 93 1010.0
20260507000445 10 106 0.0 0.0 0.00 0.84 0.00 93 1010.0
20260506235945 10 106 0.0 0.0 0.00 0.84 0.00 93 1009.9
20260506235445 10 106 0.0 0.0 0.00 0.84 0.00 93 1009.9
20260506234945 10 106 0.0 0.0 0.00 0.84 0.00 93 1009.9
20260506234445 10 106 0.0 0.0 0.00 0.84 0.00 93 1009.9
20260506233945 10 106 0.0 0.0 0.00 0.84 0.00 93 1009.8
20260506233445 10 106 0.0 0.0 0.00 0.84 0.00 93 1009.8
20260506232945 10 106 0.0 0.0 0.00 0.84 0.00 93 1009.7
20260506232445 10 106 0.0 0.0 0.00 0.84 0.00 93 1009.6
20260506231945 10 106 0.0 0.0 0.00 0.84 0.00 93 1009.6
20260506231445 10 106 0.0 0.0 0.00 0.84 0.00 93 1009.4
20260506230945 10 127 0.0 0.0 0.00 0.84 0.00 93 1009.4
20260506230445 10 103 0.0 0.0 0.00 0.84 0.00 93 1009.4
20260506225945 10 103 0.0 0.0 0.00 0.84 0.00 93 1009.3
20260506225445 10 103 0.0 0.0 0.00 0.84 0.00 93 1009.3
20260506224945 10 103 0.0 1.6 0.00 0.84 0.00 93 1009.3
20260506224446 10 58 1.6 4.8 0.00 0.84 0.00 93 1009.4
20260506223945 10 51 0.0 3.2 0.00 0.84 0.00 93 1009.4
20260506223445 10 53 0.0 4.8 0.00 0.84 0.00 93 1009.3
20260506222945 10 80 1.6 3.2 0.00 0.84 0.00 93 1009.3
20260506222445 10 89 1.6 6.4 0.00 0.84 0.00 93 1009.3
20260506221945 10 86 1.6 4.8 0.00 0.86 0.00 93 1009.3
20260506221446 10 37 3.2 6.4 0.00 0.86 0.00 93 1009.5
20260506220945 10 58 3.2 8.0 0.00 0.86 0.00 93 1009.4
20260506220445 10 37 3.2 8.0 0.00 0.86 0.00 93 1009.5
20260506215946 10 75 3.2 6.4 0.03 0.86 0.94 93 1009.5
20260506215446 10 42 1.6 6.4 0.03 0.86 0.94 93 1009.5
20260506214946 10 39 0.0 6.4 0.05 0.86 0.94 93 1009.6
20260506214446 10 37 0.0 1.6 0.23 0.86 0.94 93 1009.8
20260506213946 10 54 0.0 0.0 0.46 0.86 0.94 93 1009.7
20260506213446 10 54 1.6 1.6 0.81 0.86 0.94 93 1009.7
20260506212946 10 54 4.8 9.7 0.81 0.86 0.94 92 1009.5
20260506212446 10 354 6.4 12.9 0.81 0.86 0.94 92 1009.3
20260506211946 10 46 6.4 11.3 0.81 0.86 0.94 92 1009.2
20260506211446 10 68 4.8 11.3 0.81 1.50 0.94 92 1009.1
20260506210946 10 56 4.8 12.9 0.81 1.50 0.94 92 1009.0
20260506210446 10 46 6.4 14.5 0.81 1.50 0.94 92 1009.2
20260506205946 10 18 6.4 16.1 0.79 1.47 0.91 91 1009.2
20260506205446 10 25 4.8 17.7 0.79 1.47 0.91 91 1009.3
20260506204946 11 295 4.8 17.7 0.76 1.45 0.89 90 1009.3
20260506204446 11 191 4.8 25.7 0.58 1.27 0.71 89 1009.3
20260506203946 12 63 3.2 11.3 0.36 1.04 0.48 87 1009.7
20260506203446 12 262 3.2 9.7 0.00 0.69 0.13 87 1009.6
20260506202946 12 184 3.2 9.7 0.00 0.69 0.13 86 1009.4
20260506202446 12 224 3.2 11.3 0.00 0.69 0.13 86 1009.3
20260506201946 13 189 1.6 8.0 0.00 1.88 0.13 86 1009.3
20260506201446 13 245 0.0 6.4 0.00 1.88 0.13 86 1009.2
20260506200946 13 264 1.6 1.6 0.00 1.88 0.13 86 1009.0
20260506200446 13 14 4.8 11.3 0.00 1.88 0.13 86 1008.7
20260506195946 13 47 6.4 9.7 0.00 1.88 0.13 86 1008.6
20260506195446 13 51 6.4 14.5 0.00 1.88 0.13 85 1008.5
20260506194946 13 45 6.4 16.1 0.00 1.88 0.13 85 1008.4
20260506194446 13 63 8.0 14.5 0.00 1.88 0.13 85 1008.5
20260506193946 13 57 8.0 14.5 0.00 1.88 0.13 85 1008.4
20260506193446 13 54 8.0 17.7 0.00 1.88 0.13 85 1008.5
20260506192946 13 31 8.0 17.7 0.00 1.88 0.13 85 1008.4
20260506192446 13 63 8.0 12.9 0.00 1.88 0.13 85 1008.3
20260506191946 13 60 6.4 14.5 0.00 2.24 0.13 85 1008.2
20260506191446 13 60 8.0 11.3 0.00 2.24 0.13 85 1008.2
20260506190946 13 53 8.0 14.5 0.00 2.24 0.13 84 1008.1
20260506190446 13 59 8.0 16.1 0.00 2.24 0.13 84 1008.0
20260506185946 13 34 6.4 12.9 0.00 2.24 0.13 84 1007.8
20260506185446 13 34 8.0 11.3 0.00 2.24 0.13 84 1007.8
20260506184946 13 55 8.0 12.9 0.00 2.24 0.13 83 1007.7
20260506184446 14 44 8.0 16.1 0.00 2.24 0.13 83 1007.6
20260506183946 14 51 8.0 12.9 0.00 2.24 0.13 83 1007.5
20260506183446 14 63 9.7 14.5 0.00 2.24 0.13 82 1007.5
20260506182946 14 56 8.0 17.7 0.00 2.24 0.13 82 1007.4
20260506182446 14 52 6.4 14.5 0.00 2.24 0.13 83 1007.5
20260506181946 14 29 6.4 9.7 0.00 2.54 0.13 83 1007.5
20260506181446 15 38 6.4 12.9 0.00 2.54 0.13 82 1007.5
20260506180946 15 11 8.0 14.5 0.00 2.54 0.13 81 1007.4
20260506180446 15 25 8.0 17.7 0.00 2.54 0.13 80 1007.3
20260506175946 15 49 8.0 19.3 0.00 2.54 0.13 79 1007.4
20260506175446 15 30 8.0 16.1 0.00 2.54 0.13 79 1007.3
20260506174946 16 18 8.0 17.7 0.00 2.54 0.13 77 1007.3
20260506174446 16 34 8.0 19.3 0.00 2.54 0.13 76 1007.2
20260506173946 17 330 4.8 19.3 0.00 2.54 0.13 74 1007.2
20260506173446 18 58 0.0 9.7 0.00 2.54 0.13 62 1007.1
20260506172946 18 257 0.0 1.6 0.00 2.54 0.13 60 1006.9
20260506172446 18 255 0.0 1.6 0.00 2.54 0.13 60 1006.9
20260506171946 19 256 0.0 1.6 0.00 2.57 0.13 59 1006.9
20260506171446 19 222 0.0 1.6 0.00 2.57 0.13 57 1006.8
20260506170946 19 220 0.0 4.8 0.00 2.57 0.13 58 1006.8
20260506170446 19 203 0.0 1.6 0.00 2.57 0.13 57 1006.7
20260506165946 20 259 0.0 3.2 0.00 2.57 0.13 56 1006.7
20260506165446 20 259 0.0 1.6 0.00 2.57 0.13 56 1006.7
20260506164946 20 241 0.0 3.2 0.00 2.57 0.13 54 1006.7
20260506164446 20 216 0.0 3.2 0.00 2.57 0.13 56 1006.7
20260506163946 20 213 1.6 4.8 0.00 2.57 0.13 55 1006.7
20260506163446 20 210 1.6 6.4 0.00 2.57 0.13 56 1006.8
20260506162946 20 194 1.6 4.8 0.00 2.57 0.13 56 1006.8
20260506162511 20 259 0.0 6.4 0.00 2.57 0.13 56 1006.9
20260506162446 20 269 1.6 8.0 0.00 2.57 0.13 56 1006.8
20260506161946 20 259 0.0 6.4 0.00 2.57 0.13 56 1006.9
20260506161446 20 263 1.6 1.6 0.00 2.57 0.13 59 1006.9
20260506160946 20 216 1.6 9.7 0.00 2.57 0.13 57 1007.0
20260506160446 19 231 0.0 1.6 0.00 2.57 0.13 57 1007.1
20260506155946 19 249 1.6 8.0 0.00 2.57 0.13 58 1007.1
20260506155446 20 257 3.2 8.0 0.00 2.57 0.13 56 1007.2
20260506154946 20 237 1.6 6.4 0.00 2.57 0.13 57 1007.2
20260506154446 20 269 1.6 4.8 0.00 2.57 0.13 60 1007.1
20260506153946 19 264 1.6 6.4 0.00 2.57 0.13 60 1007.2
20260506153446 19 223 1.6 12.9 0.00 2.57 0.13 60 1007.3
20260506152946 18 245 1.6 6.4 0.00 2.57 0.13 62 1007.4
20260506152446 18 207 1.6 8.0 0.00 2.57 0.13 59 1007.3
20260506151946 18 246 1.6 6.4 0.00 2.57 0.13 62 1007.4
20260506151447 18 197 1.6 4.8 0.00 2.57 0.13 62 1007.4
20260506150947 18 222 1.6 6.4 0.00 2.57 0.13 62 1007.5
20260506150446 18 166 1.6 4.8 0.00 2.57 0.13 64 1007.5
20260506145947 18 270 3.2 6.4 0.00 2.57 0.13 63 1007.5
20260506145447 18 249 3.2 12.9 0.00 2.57 0.13 63 1007.6
20260506144947 18 263 3.2 9.7 0.00 2.57 0.13 62 1007.7
20260506144447 18 240 3.2 8.0 0.00 2.57 0.13 60 1007.6
20260506143947 18 268 3.2 8.0 0.00 2.57 0.13 62 1007.5
20260506143447 18 238 4.8 12.9 0.00 2.57 0.13 63 1007.6
20260506142947 18 262 3.2 11.3 0.00 2.57 0.13 63 1007.5
20260506142447 18 269 1.6 6.4 0.00 2.57 0.13 63 1007.5
20260506141947 18 172 1.6 11.3 0.00 2.57 0.13 63 1007.5
20260506141447 18 255 1.6 8.0 0.00 2.57 0.13 64 1007.6
20260506140947 18 233 3.2 8.0 0.00 2.57 0.13 64 1007.7
20260506140447 18 230 4.8 11.3 0.00 2.57 0.13 62 1007.7
20260506135947 18 270 4.8 8.0 0.00 2.57 0.13 64 1007.7
20260506135447 18 247 4.8 14.5 0.00 2.57 0.13 63 1007.7
20260506134947 18 297 6.4 16.1 0.00 2.57 0.13 62 1007.7
20260506134447 18 225 6.4 16.1 0.00 2.57 0.13 61 1007.8
20260506133947 18 217 4.8 16.1 0.00 2.57 0.13 61 1007.7
20260506133447 18 264 3.2 9.7 0.00 2.57 0.13 65 1007.8
20260506132947 18 243 3.2 11.3 0.00 2.57 0.13 63 1007.7
20260506132447 19 256 4.8 8.0 0.00 2.57 0.13 64 1007.7
20260506131947 18 261 6.4 12.9 0.00 2.57 0.13 61 1007.7
20260506131447 19 179 4.8 16.1 0.00 2.57 0.13 62 1007.9
20260506130947 19 264 4.8 12.9 0.00 2.57 0.13 63 1007.9
20260506125947 18 228 4.8 16.1 0.00 2.57 0.13 64 1007.9
20260506125447 18 237 4.8 9.7 0.00 2.57 0.13 63 1007.9
20260506124947 19 260 4.8 14.5 0.00 2.57 0.13 64 1007.8
20260506124447 18 267 6.4 12.9 0.00 2.57 0.13 63 1007.8
20260506123947 18 253 8.0 16.1 0.00 2.57 0.13 63 1008.0
20260506123447 19 233 8.0 17.7 0.00 2.57 0.13 62 1008.0
20260506122947 19 202 6.4 16.1 0.00 2.57 0.13 62 1008.2
20260506122447 18 219 6.4 19.3 0.00 2.57 0.13 63 1008.2
20260506121947 18 231 6.4 12.9 0.00 2.57 0.13 64 1008.0
20260506121447 18 167 4.8 16.1 0.00 2.57 0.13 64 1008.1
20260506120947 18 285 4.8 14.5 0.00 2.57 0.13 65 1008.1
20260506120447 18 248 4.8 9.7 0.00 2.57 0.13 66 1008.1
20260506115947 18 243 6.4 16.1 0.00 2.57 0.13 65 1008.1
20260506115447 18 242 6.4 14.5 0.00 2.57 0.13 65 1008.1
20260506114947 18 272 6.4 22.5 0.00 2.57 0.13 64 1008.1
20260506114447 18 204 4.8 14.5 0.00 2.57 0.13 65 1008.0
20260506113947 18 175 6.4 11.3 0.00 2.57 0.13 66 1008.1
20260506113447 18 259 8.0 17.7 0.00 2.57 0.13 64 1008.1
20260506112947 18 245 6.4 19.3 0.00 2.57 0.13 66 1008.1
20260506112447 18 214 4.8 19.3 0.00 2.57 0.13 66 1008.2
20260506111947 18 199 6.4 11.3 0.00 2.57 0.13 69 1008.1
20260506111447 18 240 6.4 19.3 0.00 2.57 0.13 66 1008.0
20260506110948 18 271 4.8 14.5 0.00 2.57 0.13 66 1008.2
20260506110447 18 224 6.4 14.5 0.00 2.57 0.13 67 1008.1
20260506105947 18 212 6.4 14.5 0.00 2.57 0.13 68 1008.1
20260506105447 18 253 6.4 16.1 0.00 2.57 0.13 68 1008.2
20260506104947 18 221 6.4 16.1 0.00 2.57 0.13 69 1008.2
20260506104447 18 274 8.0 14.5 0.00 2.57 0.13 68 1008.3
20260506103947 18 248 8.0 16.1 0.00 2.57 0.13 69 1008.3
20260506103447 17 271 8.0 19.3 0.00 2.57 0.13 70 1008.3
20260506102947 17 254 6.4 20.9 0.00 2.57 0.13 69 1008.4
20260506102447 17 281 8.0 16.1 0.00 2.57 0.13 72 1008.2
20260506101947 17 274 6.4 19.3 0.00 2.57 0.13 72 1008.3
20260506101447 17 262 6.4 16.1 0.00 2.57 0.13 71 1008.3
20260506100947 17 205 8.0 14.5 0.00 2.57 0.13 72 1008.3